Temp
14 15 15 15 15 16 16 16 16 17 17 17 17 17 17 17 18 18 18 18 19 18 18 17 17 18 18 19 18 19 18 19 21 23 23 23 22 23 22 21 22 22 22 20 19
14 14 14 15 15 15 15 16 16 16 16 17 17 17 17 17 18 18 19 18 19 18 17 17 18 18 18 19 19 19 18 21 22 22 22 23 22 22 22 22 22 22 22 21 19
13 14 14 14 14 15 16 16 16 16 16 16 17 17 17 17 17 19 20 19 19 18 18 18 19 18 19 20 20 20 18 22 22 22 22 22 22 22 22 20 22 22 21 20 19
12 13 13 14 14 14 15 15 16 16 17 17 16 17 17 17 19 20 19 19 19 18 18 18 19 19 20 20 21 20 21 22 22 21 21 21 21 22 22 21 21 20 20 19 19
12 13 13 14 14 14 14 15 16 16 16 17 17 16 16 16 18 19 20 19 18 18 18 19 19 20 19 21 21 21 21 22 22 21 20 20 20 20 21 22 21 20 19 18 19
10 12 13 13 13 14 15 15 15 16 16 17 16 16 16 17 19 19 19 19 18 17 18 19 19 20 21 21 21 22 21 21 22 21 21 21 21 21 21 21 21 19 19 18 19
10 10 11 13 13 14 14 15 15 16 16 16 16 16 14 17 19 19 18 19 18 18 19 19 19 19 20 20 21 21 19 20 21 21 21 21 19 20 21 22 21 20 19 19 18
10 10 10 11 12 13 14 15 15 16 16 16 16 15 15 18 18 19 18 18 18 18 18 19 18 18 19 20 20 20 20 18 22 22 22 20 17 20 23 21 21 20 20 19 19
9 10 10 10 11 12 13 14 15 16 16 16 16 15 17 18 18 18 18 18 18 18 18 18 18 18 19 18 18 19 18 20 21 22 22 19 18 20 22 21 20 20 20 20 20
9 9 10 11 11 12 13 14 15 16 14 14 14 15 17 18 19 18 18 18 18 18 18 18 18 18 18 18 17 20 20 21 22 21 21 19 18 20 22 21 20 20 20 20 19
9 9 10 11 11 12 13 14 15 14 13 16 17 17 20 19 19 18 18 18 19 18 18 18 17 17 19 20 20 21 20 20 21 22 21 19 19 20 21 22 21 20 19 19 17
7 8 9 11 11 11 11 12 10 10 11 14 16 16 17 19 19 18 19 19 19 18 19 18 17 20 21 21 21 21 20 19 20 22 21 19 19 20 20 21 21 20 18 17 16
6 7 7 10 10 10 10 9 9 10 11 14 16 16 17 18 19 19 19 19 19 18 19 18 20 22 21 20 20 19 19 19 20 21 20 19 18 19 21 21 18 17 17 16 13
6 6 7 10 9 10 10 10 11 10 11 17 18 18 18 18 18 18 19 19 19 19 19 19 21 21 20 20 21 18 20 20 20 18 16 20 16 18 19 17 16 17 17 14 11
6 6 7 6 6 7 8 10 11 10 13 20 19 17 19 19 19 19 19 19 18 19 20 19 20 20 19 20 20 19 20 19 19 17 17 17 16 19 20 16 16 17 16 14 11
5 6 7 7 7 7 8 9 10 12 14 19 18 17 18 19 19 19 19 19 19 19 20 20 21 20 20 21 20 20 19 18 18 16 14 17 17 18 18 18 17 17 16 13 11
4 5 6 6 7 8 8 9 11 12 20 20 19 18 18 18 18 19 18 18 17 16 17 19 20 20 20 19 19 18 17 13 14 13 14 18 18 17 18 19 17 16 15 13 11
4 4 6 6 7 7 7 9 10 16 18 20 19 19 18 19 18 18 18 17 18 18 18 16 17 19 19 18 17 17 17 13 13 14 13 17 14 18 18 17 18 17 14 12 10
3 4 4 5 6 5 6 8 12 15 17 16 16 17 17 18 18 18 18 17 18 18 17 18 18 21 20 19 19 17 15 18 16 17 14 14 18 17 16 15 15 15 13 12 10
3 2 3 5 5 5 6 8 12 14 15 14 13 15 16 17 17 17 17 19 18 19 19 19 17 20 18 19 18 18 19 15 15 13 14 17 18 17 15 15 14 14 13 12 11
2 3 4 6 6 5 5 7 10 11 12 12 12 13 14 14 16 17 17 18 19 18 19 18 17 18 16 16 17 17 16 17 17 16 16 17 19 19 16 16 15 14 14 12 10
2 3 4 6 5 6 6 8 9 10 11 11 12 12 12 12 12 13 14 17 18 18 17 19 17 16 15 18 18 17 17 18 15 16 16 17 16 21 17 17 16 16 15 13 11
1 2 2 4 3 4 7 8 9 9 10 10 11 12 12 11 10 11 12 14 13 13 15 17 16 14 16 16 17 16 18 18 18 17 16 15 17 20 17 17 18 16 15 14 11
0 1 2 3 3 5 6 7 9 10 10 11 9 9 9 9 11 10 10 10 10 12 12 13 15 15 14 17 16 16 17 18 18 16 17 17 18 18 17 16 16 16 15 14 11
0 0 2 2 2 3 6 6 8 9 11 11 10 10 9 9 9 10 11 11 10 10 11 11 14 14 15 17 18 17 17 17 17 18 17 18 18 18 17 16 16 16 15 13 11
0 -0 0 1 2 0 3 6 7 9 10 10 9 10 10 8 9 8 7 7 5 8 10 10 12 14 14 16 17 17 19 17 17 18 18 19 19 20 19 19 17 16 15 13 12
-0 -0 0 1 2 2 4 5 6 9 9 10 10 9 9 10 10 9 8 8 5 4 7 8 10 12 12 15 16 16 18 18 18 18 18 17 19 19 17 17 17 16 15 14 13
Height
1530 1528 1526 1525 1523 1521 1520 1518 1516 1514 1512 1510 1508 1506 1504 1504 1504 1503 1503 1504 1503 1503 1503 1504 1505 1506 1508 1507 1510 1508 1512 1510 1499 1491 1494 1494 1498 1498 1500 1500 1499 1499 1501 1501 1502
1528 1526 1525 1524 1522 1521 1519 1517 1515 1513 1510 1508 1507 1506 1504 1502 1501 1499 1500 1502 1503 1503 1504 1505 1505 1506 1506 1507 1508 1507 1508 1501 1494 1494 1496 1494 1498 1497 1498 1497 1497 1497 1498 1498 1501
1529 1527 1525 1523 1521 1520 1519 1516 1514 1512 1510 1507 1505 1504 1503 1501 1500 1494 1495 1499 1501 1502 1505 1505 1505 1506 1504 1504 1504 1501 1505 1495 1496 1497 1497 1497 1497 1497 1497 1497 1495 1495 1496 1497 1501
1528 1526 1524 1523 1521 1519 1516 1515 1513 1510 1508 1507 1504 1501 1502 1501 1500 1494 1495 1497 1500 1501 1503 1505 1505 1505 1503 1500 1498 1501 1498 1497 1497 1497 1499 1498 1496 1494 1493 1494 1494 1494 1496 1498 1500
1526 1524 1522 1521 1519 1518 1516 1513 1511 1509 1506 1504 1502 1501 1501 1500 1495 1492 1494 1496 1498 1500 1502 1503 1504 1504 1502 1497 1496 1495 1496 1495 1495 1496 1497 1497 1495 1494 1491 1491 1491 1493 1496 1497 1498
1525 1523 1521 1519 1517 1515 1513 1511 1509 1507 1505 1503 1500 1500 1500 1499 1492 1491 1493 1494 1497 1499 1501 1502 1502 1501 1498 1497 1496 1492 1493 1492 1491 1492 1493 1492 1491 1491 1488 1488 1488 1490 1493 1495 1496
1524 1522 1519 1517 1515 1512 1510 1508 1507 1505 1503 1501 1499 1497 1498 1494 1492 1489 1490 1492 1495 1498 1500 1501 1501 1501 1498 1496 1494 1493 1495 1490 1487 1487 1487 1488 1489 1486 1482 1483 1484 1486 1490 1492 1493
1523 1520 1517 1514 1512 1509 1507 1505 1503 1501 1499 1498 1497 1496 1492 1487 1489 1490 1489 1491 1494 1495 1497 1499 1500 1500 1498 1496 1494 1494 1492 1496 1477 1477 1482 1487 1493 1478 1473 1477 1480 1484 1486 1486 1487
1521 1518 1515 1512 1509 1506 1503 1501 1499 1497 1496 1496 1495 1496 1488 1483 1484 1486 1489 1491 1493 1494 1495 1496 1498 1498 1496 1497 1498 1489 1494 1486 1480 1474 1478 1484 1485 1474 1475 1477 1479 1481 1482 1482 1483
1521 1518 1515 1511 1507 1504 1500 1497 1495 1493 1492 1492 1493 1497 1484 1481 1480 1483 1486 1489 1492 1494 1494 1495 1495 1494 1492 1495 1503 1486 1484 1477 1477 1474 1475 1480 1479 1473 1472 1471 1472 1476 1478 1479 1480
1521 1517 1513 1510 1507 1502 1499 1495 1496 1494 1493 1488 1486 1481 1477 1478 1479 1479 1483 1486 1489 1491 1491 1490 1493 1491 1486 1482 1480 1478 1479 1481 1475 1469 1470 1474 1474 1470 1465 1465 1466 1470 1474 1476 1478
1518 1515 1512 1510 1506 1505 1503 1501 1502 1503 1491 1480 1476 1476 1473 1476 1476 1477 1481 1484 1483 1484 1485 1488 1485 1479 1476 1474 1474 1476 1479 1481 1474 1467 1470 1472 1469 1462 1459 1459 1461 1465 1470 1474 1477
1515 1512 1508 1505 1505 1505 1505 1505 1503 1502 1492 1466 1458 1459 1460 1470 1468 1468 1472 1475 1476 1480 1479 1480 1472 1469 1471 1473 1475 1479 1481 1480 1478 1469 1467 1469 1464 1456 1443 1454 1459 1466 1470 1474 1476
1514 1512 1508 1503 1505 1504 1505 1503 1501 1502 1492 1454 1450 1449 1455 1463 1461 1464 1465 1470 1472 1472 1475 1471 1466 1465 1469 1473 1470 1479 1471 1470 1471 1478 1490 1465 1485 1458 1453 1456 1461 1466 1469 1472 1475
1515 1512 1508 1507 1506 1505 1505 1502 1501 1501 1497 1443 1446 1446 1447 1454 1452 1451 1456 1465 1464 1464 1467 1463 1460 1462 1465 1466 1468 1471 1469 1473 1473 1479 1480 1474 1484 1451 1436 1456 1459 1461 1465 1471 1475
1514 1512 1508 1506 1507 1506 1502 1502 1501 1503 1484 1447 1447 1447 1448 1447 1448 1449 1452 1458 1464 1463 1458 1457 1456 1457 1460 1459 1463 1465 1471 1473 1476 1481 1492 1465 1470 1456 1448 1446 1450 1456 1463 1469 1474
1510 1508 1507 1506 1503 1504 1502 1501 1502 1490 1445 1442 1445 1447 1447 1445 1449 1450 1452 1454 1458 1469 1463 1455 1454 1455 1458 1463 1464 1468 1476 1498 1497 1500 1490 1454 1458 1452 1441 1439 1445 1453 1461 1468 1472
1506 1505 1503 1502 1500 1502 1503 1505 1493 1459 1451 1443 1443 1443 1449 1445 1442 1444 1449 1450 1449 1450 1455 1463 1463 1449 1451 1455 1464 1467 1471 1489 1502 1492 1486 1460 1476 1448 1434 1441 1446 1451 1458 1466 1470
1504 1500 1498 1499 1500 1501 1505 1496 1466 1459 1452 1454 1449 1446 1446 1443 1443 1439 1440 1444 1443 1445 1456 1447 1447 1433 1437 1447 1456 1461 1471 1459 1471 1467 1482 1469 1446 1443 1441 1446 1449 1453 1457 1463 1467
1501 1497 1492 1492 1497 1498 1498 1477 1463 1459 1459 1460 1461 1450 1447 1442 1444 1440 1437 1427 1435 1435 1441 1440 1450 1431 1437 1443 1447 1450 1450 1472 1473 1488 1484 1452 1444 1442 1442 1443 1447 1452 1456 1461 1464
1498 1493 1486 1488 1490 1493 1480 1469 1467 1467 1467 1467 1461 1457 1451 1449 1441 1438 1432 1427 1426 1428 1430 1435 1445 1443 1442 1445 1445 1451 1455 1452 1456 1459 1463 1460 1437 1417 1425 1430 1438 1446 1452 1456 1461
1493 1489 1484 1484 1484 1475 1472 1467 1467 1462 1465 1462 1458 1458 1458 1455 1451 1449 1443 1430 1426 1422 1426 1423 1435 1444 1446 1434 1435 1439 1444 1446 1459 1456 1449 1449 1448 1413 1419 1428 1434 1441 1448 1453 1457
1487 1481 1476 1481 1471 1464 1465 1461 1460 1460 1459 1460 1455 1455 1456 1456 1457 1451 1446 1437 1435 1434 1429 1422 1429 1446 1442 1440 1434 1438 1437 1435 1437 1438 1443 1457 1442 1416 1420 1427 1433 1437 1445 1451 1454
1483 1474 1470 1470 1467 1458 1456 1453 1449 1451 1451 1452 1457 1457 1457 1454 1450 1451 1450 1444 1439 1439 1434 1429 1420 1427 1430 1420 1428 1435 1428 1427 1431 1442 1437 1433 1428 1424 1424 1428 1432 1436 1442 1448 1450
1471 1462 1463 1462 1457 1455 1452 1452 1443 1442 1443 1445 1445 1448 1453 1453 1451 1448 1445 1441 1442 1443 1439 1435 1422 1423 1420 1415 1413 1415 1417 1421 1421 1421 1428 1420 1421 1416 1416 1420 1426 1434 1440 1445 1448
1463 1462 1456 1455 1456 1456 1446 1443 1443 1436 1437 1438 1440 1444 1447 1448 1448 1452 1455 1456 1457 1444 1441 1435 1424 1421 1418 1413 1410 1410 1404 1408 1411 1411 1414 1412 1411 1399 1408 1418 1423 1429 1435 1440 1444
1453 1453 1455 1446 1450 1447 1437 1435 1434 1433 1434 1434 1436 1440 1441 1442 1446 1446 1450 1453 1457 1459 1448 1441 1433 1426 1421 1412 1408 1410 1391 1398 1402 1400 1408 1412 1401 1399 1407 1412 1417 1422 1429 1434 1439
Wind_Speed
10 10 10 11 11 10 12 13 12 14 15 16 14 12 9 11 10 12 10 11 10 6 3 3 4 2 3 3 3 1 2 5 8 1 3 10 0 7 2 7 5 3 5 4 4
10 10 11 12 12 12 12 12 13 14 14 15 15 14 12 9 11 16 10 15 12 5 6 7 6 5 4 4 5 4 3 6 6 8 4 2 2 10 3 9 12 11 8 4 5
11 12 13 13 13 14 14 14 14 14 16 16 15 12 10 9 11 8 12 16 10 7 5 5 3 5 9 7 8 6 4 8 7 4 7 9 7 8 9 7 11 7 5 1 2
13 14 14 15 15 15 15 15 16 16 16 17 15 9 8 5 4 1 4 12 9 7 5 7 7 9 4 5 10 5 13 13 9 1 6 7 11 12 11 13 12 3 3 5 6
13 13 13 15 16 16 17 17 16 16 17 16 14 10 5 6 14 12 6 10 9 8 9 8 10 9 8 7 9 9 10 17 8 8 10 11 12 12 18 17 13 7 8 9 9
17 16 16 16 16 17 17 17 17 17 17 16 13 9 7 12 5 8 8 10 9 9 8 8 10 10 12 11 8 6 9 12 12 12 14 13 13 17 16 15 16 11 12 12 11
17 18 19 17 17 18 18 18 18 17 17 14 12 8 9 20 5 9 11 11 11 9 8 8 10 7 6 10 10 12 10 10 15 18 11 12 8 15 28 19 17 13 16 14 11
20 20 20 21 18 18 19 18 18 16 15 13 9 6 9 5 18 12 14 14 11 9 8 7 8 10 15 13 9 9 10 10 8 14 5 7 9 15 11 18 12 13 19 18 18
18 20 20 22 20 19 20 19 18 16 13 10 5 5 9 10 16 17 18 17 13 10 7 5 5 11 10 7 8 10 7 9 7 10 5 7 7 10 4 7 11 14 17 17 13
22 22 22 21 21 19 20 17 15 12 9 9 9 6 16 10 10 18 19 17 14 12 9 10 7 6 7 8 7 9 8 8 5 8 7 8 12 10 20 18 18 12 14 13 7
23 24 24 23 21 16 18 14 8 3 5 10 8 10 5 7 5 15 20 19 16 16 12 15 8 11 13 14 15 14 13 9 10 10 5 6 11 14 18 15 11 14 11 6 7
24 25 23 18 18 12 13 8 7 8 15 22 32 32 29 18 10 15 22 20 19 16 15 13 15 14 14 15 10 8 11 11 11 12 1 7 13 14 12 7 11 4 4 4 4
29 28 27 20 10 6 7 9 10 12 9 18 34 26 34 28 25 20 30 30 19 17 17 16 13 14 13 13 10 11 13 12 13 10 6 11 17 14 9 10 10 6 5 3 5
25 26 27 23 1 7 3 8 10 8 6 8 9 7 21 21 13 31 33 29 13 20 16 14 19 20 10 11 11 12 10 9 12 4 4 4 6 11 4 7 8 12 11 9 5
23 26 24 15 16 10 13 13 11 4 7 7 8 3 4 22 6 19 35 33 21 17 12 9 7 7 15 15 11 11 3 5 5 6 9 10 5 5 10 8 10 11 14 11 6
21 22 21 16 9 9 13 9 4 4 9 4 5 6 6 25 16 7 23 31 22 18 18 17 14 4 11 9 8 4 4 6 6 4 5 14 11 6 7 9 12 12 15 14 9
24 22 21 17 12 12 12 6 4 7 3 2 2 5 9 11 18 9 13 21 16 15 21 16 20 6 6 4 3 6 5 2 3 3 5 6 2 6 5 6 11 11 20 15 11
25 25 23 17 9 10 7 4 11 9 13 7 2 5 9 9 16 17 11 17 21 18 5 15 12 20 13 17 7 11 8 5 5 2 3 2 5 4 10 13 16 18 21 17 12
25 24 16 13 11 6 5 9 8 9 11 8 16 16 14 12 8 11 20 17 19 24 14 9 14 7 14 12 16 9 9 9 4 5 3 5 6 1 10 9 11 14 20 18 14
24 24 25 20 16 12 9 20 14 15 18 14 14 10 14 15 16 11 8 12 21 21 22 8 9 2 5 9 14 15 6 3 4 3 5 7 8 5 11 13 12 11 17 19 15
21 13 19 11 17 18 11 12 19 30 29 16 13 17 19 18 16 16 11 9 9 13 19 24 14 1 6 8 12 7 6 7 6 5 3 4 0 6 12 16 16 12 20 24 19
18 7 11 15 17 16 14 20 27 22 28 20 16 18 20 18 19 20 19 17 13 1 15 19 11 14 10 7 15 15 11 14 4 6 5 2 5 4 10 9 18 18 22 23 21
10 22 25 20 8 13 18 23 27 22 21 22 19 16 15 16 16 11 12 11 22 15 8 5 10 8 9 6 3 8 15 16 15 8 6 5 2 3 9 8 18 20 23 23 24
10 4 10 18 32 21 20 22 22 27 21 24 9 15 14 17 17 9 13 10 32 25 29 13 7 16 17 14 7 8 15 20 18 13 12 10 3 6 8 9 10 22 24 24 23
12 7 10 5 9 18 17 15 23 22 24 21 15 14 15 15 17 19 17 18 16 25 11 7 10 20 22 22 15 12 16 21 23 22 14 14 13 11 14 13 17 24 25 25 25
15 5 8 15 24 14 17 22 26 22 18 17 17 16 13 11 14 14 12 12 4 11 10 7 10 15 17 19 23 20 16 20 23 24 22 8 8 5 18 19 21 25 26 26 27
30 34 24 16 12 9 17 22 24 20 23 24 15 11 13 14 17 10 12 11 9 6 7 5 7 12 19 18 16 18 21 15 13 21 18 18 16 6 11 15 21 27 29 28 29
Wind_Direction
348 343 340 338 339 340 336 337 339 338 337 329 322 316 297 291 285 277 279 273 248 263 228 175 146 176 184 199 233 242 281 266 283 146 314 103 189 193 205 285 256 206 282 72 35
345 342 339 334 332 331 332 330 331 332 333 331 323 315 305 297 287 266 255 253 269 226 183 189 181 175 222 203 203 224 225 277 31 356 327 354 248 297 208 253 232 223 237 253 331
342 336 334 334 333 330 327 325 325 325 329 330 325 313 302 304 310 268 234 234 250 195 180 194 222 205 236 217 227 214 238 303 323 325 307 299 279 249 269 267 284 287 144 103 290
338 335 332 330 328 328 326 324 323 323 324 328 323 308 294 280 293 99 241 218 218 199 203 230 229 222 247 232 226 252 266 258 289 259 269 257 270 277 239 251 282 261 234 229 236
326 320 319 322 324 325 325 324 320 318 318 323 319 304 264 242 259 253 279 197 190 188 216 225 235 234 242 261 248 226 260 275 247 240 243 267 274 280 280 268 242 217 235 233 237
330 327 324 323 321 317 317 318 317 316 316 319 314 299 254 252 230 239 241 198 186 195 224 236 248 272 289 278 274 287 307 297 268 240 238 252 263 257 251 249 256 214 235 247 242
325 327 325 319 319 316 314 314 314 314 313 313 309 289 243 245 206 238 209 202 181 210 241 248 258 272 292 265 290 257 280 267 247 236 236 253 269 252 256 251 260 216 233 246 242
312 316 320 325 321 318 315 313 308 309 305 302 301 270 255 276 229 232 199 198 201 208 225 256 247 261 266 278 287 261 253 258 284 203 175 134 273 277 308 206 222 237 251 232 233
331 321 315 314 316 319 316 315 310 304 293 285 285 269 260 243 231 214 207 201 201 204 214 216 229 243 258 243 275 216 255 258 208 166 172 177 258 306 266 217 245 252 255 256 245
342 339 336 333 323 318 320 319 314 294 287 263 235 264 252 241 236 207 203 202 202 206 205 217 214 236 221 241 243 259 229 244 242 186 191 235 263 266 273 227 219 245 262 266 299
333 332 332 335 334 332 340 1 325 326 254 236 222 241 286 218 195 199 201 199 202 210 217 201 212 225 234 232 236 275 292 294 298 292 217 251 267 268 260 256 197 216 238 280 350
335 333 329 332 334 349 10 7 24 314 296 262 251 255 247 251 230 213 195 197 200 218 214 241 227 241 257 268 275 290 280 271 275 275 348 285 273 267 261 235 229 169 118 29 342
335 338 339 340 344 11 10 9 342 334 261 275 246 235 233 222 228 216 195 203 206 220 225 226 238 205 228 249 253 259 259 272 282 308 299 290 273 269 223 206 105 115 130 126 81
337 340 345 337 53 339 338 290 334 347 281 261 187 251 225 212 239 229 203 198 222 223 225 243 241 253 242 251 250 248 255 288 261 305 261 0 288 304 143 150 143 185 169 118 91
327 331 341 354 331 339 301 287 319 0 293 82 140 194 200 190 200 209 213 199 217 221 210 227 232 244 241 237 237 257 12 296 298 275 291 265 266 278 157 174 168 194 131 131 131
319 326 330 336 326 317 308 308 338 232 248 216 142 179 181 205 233 358 192 203 227 238 243 242 265 243 240 249 230 287 155 244 260 259 258 250 218 256 187 182 174 136 146 142 149
316 323 324 319 302 289 311 346 229 235 299 206 181 177 212 202 221 218 208 192 208 217 234 240 235 205 242 191 220 177 162 278 244 196 236 13 287 216 102 96 137 143 143 150 156
307 312 313 305 298 298 317 250 231 249 227 270 256 258 241 236 209 211 218 223 210 230 234 221 235 222 188 205 171 198 200 171 206 251 311 116 244 253 106 101 116 146 146 151 152
299 305 297 289 280 265 240 222 227 228 264 338 320 281 264 229 276 212 209 226 229 216 223 225 228 260 191 190 220 179 220 233 294 304 314 232 239 158 132 133 136 147 142 159 162
291 289 278 271 238 222 222 234 248 242 297 331 293 291 283 245 238 225 231 216 231 223 216 264 280 187 120 161 220 239 156 138 239 205 230 242 211 204 177 172 166 173 168 165 160
290 270 268 260 207 211 222 225 252 265 277 281 280 284 282 291 298 263 222 246 239 228 210 222 245 23 105 208 188 202 214 232 169 209 225 311 160 338 185 178 171 176 180 164 167
277 254 282 208 197 224 236 244 254 261 271 279 283 275 277 278 292 297 295 279 340 340 227 211 217 240 206 211 218 204 208 210 176 212 212 307 284 326 145 171 162 173 176 168 170
262 270 265 251 237 223 242 246 244 253 255 271 272 265 269 273 276 276 311 8 32 360 338 207 202 230 274 194 246 221 215 226 238 282 224 185 250 75 120 141 157 159 167 165 163
257 257 258 243 248 247 226 237 249 250 252 250 266 269 272 274 263 272 283 311 332 317 334 322 197 211 221 215 162 201 219 220 221 231 240 230 175 185 150 153 161 156 168 169 167
233 221 230 260 243 235 239 246 242 241 239 245 250 245 261 261 270 276 270 279 305 306 298 293 229 222 240 264 238 215 217 218 221 225 221 232 227 210 183 176 171 165 172 170 163
260 257 197 242 264 269 248 239 257 251 247 240 232 237 245 263 261 273 298 303 294 321 285 261 252 251 243 243 257 261 245 213 219 227 233 242 237 129 171 170 164 170 176 177 173
264 252 253 241 249 273 251 232 243 240 247 242 247 240 247 251 269 292 273 281 246 276 294 302 314 241 250 240 251 265 234 234 212 226 222 228 226 141 162 173 181 177 183 184 178